Regional Weather Roundup
Issued by NWS Bismarck, ND

Home | Current Version | Previous Version | Text Only | Print | Product List | Glossary On
Versions: 1 2 3 4 5 6 7 8 9 10 11 12 13 14 15 16 17 18 19 20 21 22 23 24 25 26 27 28 29 30 31 32 33 34 35 36 37 38 39 40 41 42 43 44 45 46 47 48 49 50
364
ASUS43 KBIS 101010
RWRBIS

NWR BROADCAST TEXT
NATIONAL WEATHER SERVICE BISMARCK ND
400 AM CST WED FEB 10 2016

NOTE: "FAIR" INDICATES FEW OR NO CLOUDS BELOW 12,000 FEET WITH NO
SIGNIFICANT WEATHER AND/OR OBSTRUCTIONS TO VISIBILITY.


CITY           SKY/WX    TMP DP  RH WIND       PRES   REMARKS
WILLISTON      CLOUDY    24  21  88 SW6       29.82F WCI  17
MINOT          CLOUDY    20  13  74 E15       29.87F WCI   6
MINOT AFB      CLOUDY    17  15  89 SE17      29.87F WCI   2
BISMARCK       CLOUDY    28  21  75 E10       29.90F WCI  19
DICKINSON      CLOUDY    28  23  81 W7        29.81F
GARRISON         N/A     22  19  89 SE12      29.84F WCI  10
HETTINGER ARPT CLOUDY    26  22  84 CALM      29.87F
JAMESTOWN      LGT SNOW   9   5  84 SE13      30.01F FOG     WCI  -7
BEACH          FAIR      32  28  86 SW10      29.87F
CARRINGTON     CLOUDY    10   9  92 SE17      30.01F FOG     WCI  -7
HAZEN          CLOUDY    27  19  74 SE5       29.86F
LINTON         CLOUDY    19  18  93 SE17      29.92F WCI   4
MANDAN         CLOUDY    25  19  80 SE12      29.88F WCI  14
OAKES          LGT SNOW  10   9  92 E12       30.04F WCI  -4
RUGBY          CLOUDY     9   7  92 SE20      29.95F FOG     WCI -11
STANLEY        PTSUNNY   25  25 100 S7        29.82F WCI  17
TIOGA          FAIR      25  25 100 SW6       29.84F WCI  18
WATFORD CITY   FAIR      27  25  93 SW8       29.82F WCI  18
$$

CITY           SKY/WX    TMP DP  RH WIND       PRES   REMARKS
GRAND FORKS    CLOUDY     5  -4  66 E8        30.14F WCI  -8
GRAND FORKS AF CLOUDY     3  -4  72 SE6       30.13F WCI  -8
DEVILS LAKE    LGT SNOW   5   1  83 SE13      30.03F FOG     WCI -12
FARGO          CLOUDY     6  -1  73 CALM      30.12F
CAVALIER       FAIR       1  -2  85 SE3       30.14F
GRAFTON        FAIR       1  -4  78 SE7       30.16F WCI -11
GWINNER        CLOUDY    10   7  85 E10       30.07F VSB 1   WCI  -3
LANGDON        LGT SNOW   3  -2  78 SE12      30.03F WCI -13
ROLLA          LGT SNOW   5   0  78 SE16      29.97F WCI -14
WALHALLA       FAIR       1  -4  78 SE6       30.12F WCI -10
$$

CITY           SKY/WX    TMP DP  RH WIND       PRES   REMARKS
ABERDEEN       LGT SNOW  18  14  84 E9        30.01F FOG     WCI   7
MOBRIDGE       CLOUDY    24  18  77 E13       29.88F WCI  12
BUFFALO          N/A     35  25  66 W12       29.81F
RAPID CITY     CLOUDY    29  23  78 CALM      29.90F
GLASGOW        CLEAR     34  27  75 NW10      29.88S
SIDNEY         CLOUDY    25  21  86 S6        29.84F WCI  18
WOLF POINT     CLEAR     29  26  89 W8        29.86F
GLENDIVE       CLEAR     30  25  80 SW9       29.88S
MILES CITY     CLOUDY    35  25  66 NW9       29.92S
BAKER          CLEAR     31  23  72 W9        29.87F
$$

CITY           SKY/WX    TMP DP  RH WIND       PRES   REMARKS
BILLINGS       CLOUDY    44  22  41 SW20      30.01F
GREAT FALLS    CLEAR     45  23  42 SW21      30.01F
REGINA         MOCLDY    23  21  93 E7        29.83R WCI  15
ESTEVAN        PTCLDY    18  16  93 E13G20    29.81S WCI   4
$$





USA.gov is the U.S. government's official web portal to all federal, state and local government web resources and services.